エンケ彗星

2P/Encke (2010)

English version
Home page
Updated on December 7, 2011

---------------------------------------------------------------------

・ プロフィール

・ 写真集

・ 軌道要素

The following orbital elements are taken from MPC 59600:

Epoch 2010 July 23.0 TT = JDT 2455400.5
T 2010 Aug. 6.5019 TT                                   MPC
q   0.335869             (2000.0)            P               Q
n   0.2990633      Peri.  186.5490      -0.9451432      -0.3146640
a   2.214593       Node   334.5669      +0.3082031      -0.7700543
e   0.848338       Incl.   11.7831      +0.1082371      -0.5549801
P   3.30
From 1601 observations 1993-2007, mean residual 0".6.  Nongravitational
     parameters A1 = -0.01, A2 = -0.0007.

・ 星図

・ 光度変化

        H = 14.2  G = 0.15                [    ,-100]  (              〜2010年 4月28日)
        m1 =  9.8 + 5 logΔ + 25   log r  [-100, -45]  (2010年 4月28日〜2010年 6月22日)
        m1 = 10.3 + 5 logΔ +  7.0 log r  [ -45,  20]  (2010年 6月22日〜2010年 8月26日)
        m1 = 12.3 + 5 logΔ + 15.7 log r  [  20, 100]  (2010年 8月26日〜2010年11月14日)
        H = 14.2  G = 0.15                [ 100,    ]  (2010年11月14日〜              )

---------------------------------------------------------------------

軌道要素はMPCのEphemerides and Orbital Elementsに掲載されたものです。
星図はステラナビゲータ Ver.8 (アストロアーツ) で作成したものです。
光度グラフはComet for Windowsで作成したものです。

---------------------------------------------------------------------

Copyright(C) Seiichi Yoshida (comet@aerith.net). All rights reserved.